Wind_Speed
4 5 5 6 5 5 5 5 4 4 4 4 3 2 3 4 5 6 6 6 7 6 7 8 9 11 11 10 11 10 10 10 10 9 9 11 11 12 14 16 17 19
5 6 5 5 4 5 6 6 5 4 4 5 5 4 5 5 6 6 6 6 6 6 7 9 9 11 11 10 9 8 9 11 13 12 12 14 15 14 16 17 18 19
6 6 6 5 5 6 7 7 5 4 5 6 7 6 6 6 6 6 6 6 6 7 8 9 10 10 11 11 10 10 11 13 14 14 14 16 17 17 17 18 19 19
7 7 6 6 7 7 6 6 5 5 6 7 7 7 7 6 6 6 6 6 7 8 9 9 10 10 10 11 11 12 13 13 13 14 14 16 17 17 17 18 19 19
7 7 6 7 8 7 6 6 5 6 8 8 8 7 7 7 6 6 7 7 8 8 9 9 9 10 10 11 11 12 12 11 12 14 15 16 17 18 18 18 19 20
6 7 7 8 8 7 6 6 6 8 10 9 9 8 8 7 7 8 8 8 9 9 10 10 9 10 10 11 11 11 11 12 13 15 15 16 17 18 19 19 19 20
6 7 8 9 8 7 7 8 9 11 11 10 10 9 8 7 8 9 8 8 9 10 11 11 10 10 10 10 10 10 11 13 14 14 14 16 16 17 18 19 20 20
7 9 9 9 9 9 9 10 12 12 11 11 10 9 7 8 9 9 9 10 9 9 10 11 11 10 9 10 10 11 12 13 13 14 15 16 15 16 17 19 20 21
9 10 10 10 10 11 12 13 13 13 12 11 9 8 7 9 10 9 10 8 5 6 10 10 11 11 10 10 11 12 13 13 13 15 15 15 15 16 16 17 19 20
11 10 10 11 13 14 14 14 14 13 12 10 8 8 7 8 9 7 7 7 5 8 10 9 11 12 12 12 12 12 13 13 14 15 15 15 16 16 16 17 18 19
12 11 12 14 15 16 15 14 14 13 11 9 8 8 7 8 8 6 7 10 9 8 8 8 10 11 11 12 13 12 12 13 13 14 14 15 16 15 15 17 18 18
13 14 16 17 17 17 16 14 14 13 10 9 8 9 8 9 10 8 8 11 10 7 8 10 10 9 9 10 12 12 12 12 13 13 13 14 15 14 15 17 17 18
14 17 19 19 18 17 15 14 14 12 10 10 10 10 11 11 10 10 10 11 10 9 8 9 10 10 10 9 11 12 12 12 12 13 13 13 14 14 14 16 17 18
16 19 20 19 18 17 15 14 13 11 10 10 10 11 12 11 10 11 11 10 9 8 8 8 9 11 11 10 11 12 11 11 12 12 12 12 13 14 14 15 16 17
17 20 21 19 18 17 14 13 12 10 10 10 10 11 13 12 11 11 10 9 8 8 9 10 10 13 14 12 11 12 11 12 13 13 13 13 13 14 16 16 16 16
17 21 21 19 17 15 12 11 11 11 11 11 11 12 12 12 11 10 9 9 9 9 10 12 14 15 15 13 12 13 13 13 14 15 14 14 14 15 16 17 17 17
17 20 19 17 15 12 11 12 12 11 11 11 12 12 11 10 10 9 9 9 10 11 12 15 16 16 14 12 12 14 15 13 13 14 14 14 15 15 16 17 18 19
15 16 15 14 13 13 13 13 12 12 12 11 12 12 11 11 10 10 11 11 12 12 13 15 16 14 13 12 12 14 16 15 14 14 14 15 15 16 17 18 20 21
15 16 16 15 14 14 13 13 13 13 13 12 13 12 12 12 12 12 13 13 12 12 13 14 15 13 11 11 12 14 16 16 15 16 16 16 17 17 18 20 21 21
16 17 16 16 15 14 14 14 14 14 14 13 14 14 13 13 13 13 13 12 12 12 12 13 14 12 10 11 12 15 17 16 15 17 18 18 18 19 20 21 21 22
17 17 17 16 15 14 14 14 14 15 16 16 16 15 14 13 12 12 13 12 12 12 11 13 13 11 9 10 14 17 17 15 15 17 18 19 19 20 21 22 22 22
18 17 17 17 15 15 15 14 14 16 18 18 17 16 14 13 12 12 12 12 12 12 12 12 13 11 9 11 15 17 16 14 14 16 17 19 20 21 22 22 22 22
18 17 17 17 16 16 16 16 17 19 19 18 16 15 13 13 12 12 12 12 12 13 13 13 13 12 10 11 15 17 15 12 11 13 15 17 18 20 21 23 23 22
18 18 18 17 17 18 19 19 19 20 20 18 16 14 13 13 13 12 13 12 12 13 13 13 13 12 10 11 14 17 16 12 9 10 12 13 15 17 18 21 22 22
18 18 17 17 18 20 20 20 20 20 19 17 15 14 14 13 13 13 14 13 13 13 13 13 13 13 11 12 13 16 16 13 10 10 11 11 12 14 15 18 20 21
18 18 19 19 20 21 21 20 20 20 19 17 15 14 14 14 14 14 14 14 13 12 13 13 14 14 13 13 12 13 14 13 11 10 11 11 11 12 13 15 17 18
Wind_Direction
123 129 135 133 134 134 123 112 111 100 87 88 94 98 81 71 66 59 55 48 37 27 22 23 23 19 15 16 21 11 354 355 5 6 359 351 347 343 343 347 350 351
129 131 130 129 129 121 115 111 110 99 87 98 110 111 99 86 78 66 59 53 44 36 32 29 27 23 21 23 21 9 5 11 17 16 11 9 11 8 6 6 4 3
126 123 118 119 111 104 108 108 107 105 105 112 115 114 107 93 80 70 59 54 51 45 39 34 32 31 29 30 27 23 22 21 19 19 13 12 16 17 16 14 10 8
116 116 116 116 109 105 106 106 105 113 120 123 118 115 111 95 80 75 67 60 56 46 38 34 32 31 27 25 25 23 23 20 17 18 14 13 16 17 15 15 14 14
110 109 113 116 116 116 112 109 110 120 125 123 118 115 106 91 77 73 68 57 50 41 33 29 25 25 24 20 17 16 19 19 16 18 18 17 18 19 18 19 23 23
114 114 118 121 122 121 117 120 127 129 125 120 118 114 102 88 71 63 59 51 46 40 32 26 19 18 21 20 17 17 22 24 23 23 23 22 22 23 24 26 28 27
118 120 124 127 126 123 124 130 132 129 124 121 122 111 92 78 69 63 56 47 47 44 34 27 20 17 21 25 25 26 28 28 29 28 25 24 23 24 26 26 26 24
120 123 126 127 126 126 129 131 130 128 125 125 121 106 84 73 71 67 56 45 39 40 38 31 27 26 28 32 31 30 30 27 27 28 26 24 21 20 22 22 22 21
127 128 129 128 130 131 131 129 129 128 127 124 114 97 83 72 65 61 59 52 28 30 41 38 37 37 33 35 36 33 31 28 27 28 26 22 19 18 18 18 20 22
131 131 133 135 137 135 131 129 129 128 122 114 102 90 82 76 73 67 62 60 40 33 43 48 45 42 35 33 35 33 31 29 27 29 27 24 22 18 14 16 21 25
134 138 143 143 140 136 132 131 131 128 116 100 95 90 82 83 92 92 68 62 58 47 49 55 50 46 44 37 31 30 33 32 29 29 28 27 27 20 13 18 24 26
141 146 146 144 141 138 135 132 131 126 111 95 93 91 84 80 81 82 73 70 74 70 58 54 49 54 65 53 35 27 32 36 34 32 31 30 31 26 17 19 24 25
146 147 145 143 141 139 136 134 130 120 103 94 95 92 86 82 80 81 77 71 70 65 53 49 48 51 61 62 49 34 31 37 39 36 35 32 32 33 26 20 20 22
146 147 146 143 142 139 136 131 125 113 100 98 100 95 89 87 86 84 78 67 61 55 48 49 56 56 52 57 63 50 32 38 47 44 42 40 36 38 37 30 22 19
145 147 146 143 143 139 132 123 115 108 104 101 99 96 91 87 85 82 77 66 57 56 57 58 63 64 56 55 71 69 46 45 55 54 52 51 45 41 40 38 33 23
145 147 145 143 141 134 125 118 112 109 108 103 98 95 92 88 86 83 78 70 65 66 70 69 65 64 61 58 72 78 65 56 60 60 58 56 50 44 39 39 39 34
141 144 142 139 134 126 121 119 116 113 110 105 100 96 92 90 90 87 82 79 80 78 76 73 68 65 65 65 72 80 75 65 63 63 63 61 56 50 45 43 44 43
137 136 133 130 127 125 124 121 119 116 111 105 99 94 93 94 95 96 91 87 86 83 78 76 72 68 69 70 72 78 76 67 62 63 63 62 61 57 54 52 49 46
136 132 130 129 129 129 127 124 122 118 111 105 99 95 98 102 102 100 95 90 86 82 79 79 76 70 70 72 72 76 75 66 60 62 62 60 61 60 58 57 54 49
137 133 132 132 131 131 130 127 124 118 112 107 103 101 104 107 106 102 96 92 86 81 81 82 80 75 71 75 76 75 74 68 60 60 61 60 60 60 58 57 56 53
137 136 134 133 133 133 131 128 124 121 117 112 110 110 112 111 108 103 97 92 87 85 86 86 84 81 77 82 83 76 71 68 64 62 63 62 61 61 59 56 55 54
140 139 136 135 136 134 132 130 129 127 123 118 117 117 117 113 108 103 98 95 93 91 89 88 88 87 86 90 91 84 74 65 63 63 63 62 59 58 59 58 54 53
144 142 138 136 136 137 137 136 133 129 123 120 121 121 118 113 108 105 102 101 100 97 93 91 90 91 94 97 96 93 85 72 63 61 58 56 56 54 54 56 55 52
144 142 138 137 139 143 142 137 133 129 123 122 123 122 118 113 108 106 105 103 102 101 97 94 92 94 98 101 99 96 90 78 67 67 61 53 52 50 48 49 51 51
142 141 138 142 147 146 142 138 135 129 123 121 120 117 114 111 110 111 109 106 104 102 100 100 99 98 98 98 99 99 95 85 69 67 69 62 55 51 48 47 46 48
141 143 146 150 151 146 142 139 134 127 121 118 116 116 118 117 116 116 113 109 106 102 102 102 102 100 97 93 92 95 101 102 92 75 67 64 63 57 50 48 48 49
Height
1536 1536 1535 1535 1535 1534 1535 1535 1536 1535 1536 1537 1538 1538 1538 1538 1538 1537 1537 1537 1537 1537 1536 1536 1535 1534 1533 1533 1533 1532 1531 1529 1528 1526 1525 1524 1522 1521 1519 1517 1515 1513
1534 1534 1534 1533 1533 1533 1533 1534 1535 1535 1536 1536 1537 1537 1538 1538 1538 1538 1537 1537 1537 1537 1537 1536 1535 1534 1534 1533 1533 1532 1530 1529 1527 1526 1525 1523 1522 1520 1518 1516 1514 1513
1532 1532 1532 1532 1532 1533 1533 1533 1534 1535 1536 1536 1537 1537 1538 1538 1538 1538 1538 1538 1538 1537 1537 1536 1536 1535 1534 1533 1532 1531 1530 1529 1527 1526 1525 1523 1521 1520 1518 1516 1515 1513
1530 1531 1531 1531 1532 1532 1533 1534 1534 1535 1536 1536 1537 1538 1538 1539 1539 1538 1538 1538 1538 1537 1537 1537 1536 1535 1535 1534 1533 1532 1530 1529 1528 1527 1525 1523 1522 1520 1518 1517 1515 1514
1529 1530 1530 1531 1531 1532 1533 1534 1535 1535 1536 1537 1537 1538 1538 1539 1539 1539 1539 1539 1539 1539 1539 1538 1537 1536 1535 1534 1533 1532 1531 1530 1528 1527 1525 1523 1522 1520 1519 1517 1516 1514
1528 1529 1529 1530 1531 1532 1533 1534 1535 1535 1536 1537 1538 1538 1539 1539 1540 1541 1541 1541 1541 1541 1540 1539 1538 1536 1536 1535 1534 1533 1531 1530 1528 1527 1526 1524 1523 1521 1519 1518 1517 1515
1527 1528 1529 1530 1531 1532 1533 1534 1535 1536 1537 1538 1538 1539 1540 1540 1541 1542 1543 1542 1541 1541 1541 1540 1539 1537 1536 1535 1535 1533 1531 1530 1529 1528 1527 1525 1524 1522 1521 1519 1518 1516
1527 1528 1529 1531 1531 1533 1534 1534 1535 1536 1538 1538 1539 1539 1541 1541 1542 1543 1544 1543 1542 1542 1541 1541 1540 1538 1536 1535 1535 1534 1532 1531 1530 1529 1528 1527 1525 1524 1522 1521 1519 1517
1527 1528 1529 1531 1532 1533 1534 1535 1536 1537 1538 1539 1539 1540 1541 1543 1544 1544 1544 1544 1543 1542 1542 1541 1540 1539 1538 1537 1536 1535 1534 1533 1532 1530 1529 1528 1527 1525 1524 1522 1520 1518
1527 1528 1530 1531 1532 1533 1534 1536 1537 1538 1539 1539 1540 1541 1542 1543 1545 1545 1544 1544 1543 1543 1542 1541 1541 1541 1540 1538 1537 1536 1535 1534 1533 1532 1531 1530 1529 1527 1525 1522 1520 1518
1528 1529 1530 1531 1532 1534 1535 1537 1538 1538 1539 1540 1541 1542 1542 1543 1545 1545 1544 1544 1545 1544 1542 1541 1541 1541 1541 1540 1538 1537 1536 1535 1534 1533 1533 1531 1530 1529 1526 1523 1521 1519
1528 1529 1530 1531 1533 1534 1536 1537 1538 1539 1540 1541 1542 1543 1543 1544 1545 1544 1544 1544 1544 1543 1542 1541 1540 1540 1539 1539 1539 1538 1537 1536 1535 1534 1534 1533 1531 1530 1527 1525 1522 1520
1528 1529 1531 1532 1533 1535 1536 1538 1539 1539 1541 1543 1544 1544 1544 1545 1545 1544 1543 1543 1543 1543 1542 1541 1540 1539 1539 1538 1539 1539 1538 1537 1536 1535 1535 1534 1532 1531 1529 1527 1524 1522
1528 1530 1531 1533 1534 1536 1537 1538 1539 1540 1541 1543 1544 1544 1545 1546 1545 1544 1544 1543 1543 1543 1542 1541 1541 1540 1539 1538 1538 1539 1539 1537 1536 1536 1535 1534 1533 1532 1530 1528 1526 1524
1529 1530 1531 1533 1535 1536 1538 1539 1540 1542 1543 1544 1544 1544 1545 1545 1545 1544 1544 1544 1543 1543 1543 1542 1541 1540 1540 1539 1539 1539 1539 1538 1537 1536 1535 1535 1534 1532 1531 1529 1528 1526
1530 1531 1532 1534 1536 1537 1539 1540 1542 1543 1544 1544 1544 1544 1545 1545 1545 1545 1544 1544 1544 1544 1543 1542 1542 1541 1541 1541 1540 1539 1539 1539 1538 1537 1536 1535 1534 1533 1532 1530 1529 1527
1531 1531 1533 1535 1537 1538 1540 1542 1543 1544 1544 1544 1544 1544 1545 1545 1545 1545 1545 1545 1544 1544 1544 1543 1543 1542 1542 1542 1541 1540 1540 1540 1539 1538 1537 1536 1535 1534 1532 1531 1529 1528
1532 1533 1535 1537 1539 1541 1542 1543 1544 1544 1544 1544 1544 1544 1545 1545 1545 1546 1545 1545 1545 1545 1545 1544 1544 1544 1544 1543 1543 1541 1541 1540 1540 1539 1537 1536 1535 1534 1533 1532 1530 1529
1534 1535 1537 1539 1540 1542 1543 1543 1544 1545 1544 1544 1544 1544 1545 1545 1546 1546 1546 1546 1546 1545 1545 1545 1545 1545 1545 1545 1544 1542 1542 1541 1541 1540 1538 1537 1536 1535 1534 1532 1531 1530
1535 1536 1538 1540 1541 1542 1543 1544 1544 1544 1544 1544 1544 1545 1546 1547 1547 1547 1546 1546 1546 1546 1546 1546 1546 1546 1546 1546 1545 1543 1542 1542 1542 1541 1540 1539 1537 1536 1535 1534 1533 1532
1536 1537 1538 1540 1541 1543 1543 1544 1544 1543 1543 1543 1544 1545 1547 1548 1548 1548 1547 1547 1547 1547 1547 1547 1547 1547 1547 1546 1545 1545 1544 1544 1544 1543 1541 1540 1539 1538 1537 1535 1534 1533
1537 1537 1538 1539 1541 1543 1543 1544 1544 1543 1542 1543 1544 1546 1548 1548 1548 1548 1548 1547 1548 1548 1548 1548 1548 1548 1548 1547 1546 1546 1546 1546 1546 1544 1543 1542 1541 1540 1538 1537 1535 1534
1537 1537 1538 1540 1541 1542 1543 1543 1543 1542 1542 1543 1545 1547 1548 1548 1548 1548 1548 1548 1548 1549 1549 1549 1549 1549 1549 1548 1547 1546 1546 1547 1547 1546 1545 1544 1542 1541 1540 1538 1537 1536
1537 1537 1538 1539 1541 1542 1542 1543 1543 1542 1542 1544 1546 1547 1548 1549 1549 1549 1549 1549 1549 1550 1550 1550 1550 1550 1550 1549 1548 1547 1547 1548 1549 1548 1547 1546 1545 1543 1542 1540 1539 1538
1537 1538 1539 1539 1540 1541 1542 1543 1543 1542 1542 1544 1546 1548 1549 1549 1550 1550 1550 1550 1550 1551 1551 1551 1551 1551 1551 1550 1549 1548 1548 1549 1550 1549 1548 1548 1547 1545 1544 1542 1541 1539
1537 1538 1538 1539 1540 1540 1542 1543 1543 1542 1543 1545 1547 1549 1549 1550 1550 1550 1551 1551 1552 1552 1552 1552 1552 1551 1551 1551 1550 1549 1549 1549 1550 1550 1549 1549 1548 1547 1546 1544 1542 1541